• în Republica Moldova
  • Lista ţărilor
  • Pe 7 zile
  • Temperatura apei
  • Hartă satelitară
  • Meteo pe hartă
  • Widget-uri
  • user-avatar
    Intrare

    Meteo pe oră la Biskira

    Astăzi, 27 Mai, Sâmbătă

    Timp Temperatura Precipitaţii Vânt Presiune Umiditate
    00:00 +34°C° 0 mm 5 m/s 750 mmHg 29%
    01:00 +33°C° 0,2 mm 5 m/s 750 mmHg 32%
    02:00 +32°C° 0,2 mm 5 m/s 750 mmHg 36%
    03:00 +29°C° 0,2 mm 5 m/s 750 mmHg 39%
    04:00 +29°C° 0,2 mm 5 m/s 750 mmHg 38%
    05:00 +30°C° 0,2 mm 6 m/s 750 mmHg 37%
    06:00 +30°C° 0,2 mm 6 m/s 751 mmHg 36%
    07:00 +32°C° 0 mm 6 m/s 751 mmHg 32%
    08:00 +33°C° 0 mm 6 m/s 751 mmHg 29%
    09:00 +35°C° 0 mm 6 m/s 751 mmHg 26%
    10:00 +36°C° 0 mm 6 m/s 751 mmHg 24%
    11:00 +38°C° 0 mm 7 m/s 751 mmHg 22%
    12:00 +39°C° 0 mm 7 m/s 751 mmHg 21%
    13:00 +39°C° 0 mm 7 m/s 750 mmHg 20%
    14:00 +40°C° 0 mm 7 m/s 750 mmHg 19%
    15:00 +40°C° 0 mm 7 m/s 749 mmHg 19%
    16:00 +39°C° 0 mm 7 m/s 749 mmHg 20%
    17:00 +38°C° 0 mm 6 m/s 749 mmHg 21%
    18:00 +37°C° 0 mm 5 m/s 749 mmHg 22%
    19:00 +35°C° 0 mm 5 m/s 750 mmHg 24%
    20:00 +34°C° 0 mm 5 m/s 750 mmHg 26%
    21:00 +33°C° 0 mm 5 m/s 751 mmHg 28%
    22:00 +32°C° 0 mm 5 m/s 751 mmHg 30%
    23:00 +32°C° 0 mm 5 m/s 751 mmHg 32%

    Mâine, 28 Mai, Duminică

    Timp Temperatura Precipitaţii Vânt Presiune Umiditate
    00:00 +30°C° 0 mm 5 m/s 751 mmHg 33%
    01:00 +29°C° 0,1 mm 4 m/s 751 mmHg 36%
    02:00 +28°C° 0,1 mm 3 m/s 751 mmHg 38%
    03:00 +27°C° 0,1 mm 3 m/s 751 mmHg 40%
    04:00 +28°C° 0,1 mm 3 m/s 752 mmHg 40%
    05:00 +28°C° 0,1 mm 3 m/s 752 mmHg 41%
    06:00 +28°C° 0,1 mm 4 m/s 752 mmHg 41%
    07:00 +29°C° 0 mm 4 m/s 752 mmHg 38%
    08:00 +30°C° 0 mm 4 m/s 752 mmHg 34%
    09:00 +33°C° 0 mm 4 m/s 752 mmHg 30%
    10:00 +34°C° 0 mm 4 m/s 752 mmHg 28%
    11:00 +35°C° 0 mm 4 m/s 752 mmHg 26%
    12:00 +36°C° 0 mm 5 m/s 751 mmHg 24%
    13:00 +37°C° 0 mm 5 m/s 751 mmHg 23%
    14:00 +37°C° 0 mm 5 m/s 750 mmHg 23%
    15:00 +39°C° 0 mm 5 m/s 750 mmHg 22%
    16:00 +37°C° 0,1 mm 4 m/s 750 mmHg 23%
    17:00 +37°C° 0,1 mm 4 m/s 750 mmHg 24%
    18:00 +36°C° 0,1 mm 3 m/s 750 mmHg 26%
    19:00 +35°C° 0,1 mm 4 m/s 750 mmHg 28%
    20:00 +34°C° 0,1 mm 4 m/s 751 mmHg 31%
    21:00 +33°C° 0,1 mm 4 m/s 751 mmHg 33%
    22:00 +32°C° 0 mm 4 m/s 751 mmHg 36%
    23:00 +30°C° 0 mm 5 m/s 751 mmHg 38%

    Poimâine, 29 Mai, Luni

    Timp Temperatura Precipitaţii Vânt Presiune Umiditate
    00:00 +28°C° 0 mm 5 m/s 751 mmHg 40%
    01:00 +28°C° 0 mm 4 m/s 751 mmHg 42%
    02:00 +27°C° 0 mm 4 m/s 751 mmHg 43%
    03:00 +26°C° 0 mm 3 m/s 751 mmHg 45%
    04:00 +26°C° 0 mm 3 m/s 751 mmHg 45%
    05:00 +26°C° 0 mm 3 m/s 751 mmHg 44%
    06:00 +26°C° 0 mm 3 m/s 752 mmHg 44%
    07:00 +27°C° 0 mm 3 m/s 752 mmHg 41%
    08:00 +28°C° 0 mm 3 m/s 752 mmHg 38%
    09:00 +30°C° 0 mm 4 m/s 752 mmHg 34%
    10:00 +32°C° 0 mm 4 m/s 751 mmHg 32%
    11:00 +33°C° 0 mm 4 m/s 751 mmHg 29%
    12:00 +34°C° 0 mm 4 m/s 751 mmHg 27%
    13:00 +34°C° 0 mm 4 m/s 750 mmHg 26%
    14:00 +35°C° 0 mm 4 m/s 750 mmHg 25%
    15:00 +35°C° 0 mm 4 m/s 749 mmHg 24%
    16:00 +35°C° 0,2 mm 4 m/s 749 mmHg 25%
    17:00 +35°C° 0,2 mm 4 m/s 749 mmHg 26%
    18:00 +34°C° 0,2 mm 4 m/s 749 mmHg 26%
    19:00 +33°C° 0 mm 4 m/s 750 mmHg 28%
    20:00 +32°C° 0 mm 5 m/s 750 mmHg 30%
    21:00 +30°C° 0 mm 6 m/s 751 mmHg 31%
    22:00 +29°C° 0 mm 6 m/s 751 mmHg 33%
    23:00 +28°C° 0 mm 6 m/s 751 mmHg 35%

    30 Mai, Marţi

    Timp Temperatura Precipitaţii Vânt Presiune Umiditate
    00:00 +27°C° 0 mm 6 m/s 751 mmHg 38%
    01:00 +26°C° 0 mm 5 m/s 751 mmHg 39%
    02:00 +26°C° 0 mm 4 m/s 751 mmHg 40%
    03:00 +25°C° 0 mm 3 m/s 751 mmHg 41%
    04:00 +25°C° 0 mm 3 m/s 752 mmHg 41%
    05:00 +25°C° 0 mm 3 m/s 752 mmHg 41%
    06:00 +25°C° 0 mm 2 m/s 752 mmHg 40%
    07:00 +26°C° 0 mm 3 m/s 752 mmHg 36%
    08:00 +28°C° 0 mm 3 m/s 753 mmHg 32%
    09:00 +29°C° 0 mm 4 m/s 753 mmHg 28%
    10:00 +30°C° 0 mm 4 m/s 753 mmHg 26%
    11:00 +32°C° 0 mm 4 m/s 752 mmHg 24%
    12:00 +33°C° 0 mm 4 m/s 752 mmHg 21%
    13:00 +34°C° 0 mm 4 m/s 752 mmHg 21%
    14:00 +34°C° 0 mm 4 m/s 752 mmHg 20%
    15:00 +34°C° 0 mm 3 m/s 751 mmHg 20%
    16:00 +34°C° 0 mm 3 m/s 751 mmHg 20%
    17:00 +34°C° 0 mm 3 m/s 752 mmHg 21%
    18:00 +33°C° 0 mm 3 m/s 752 mmHg 21%
    19:00 +33°C° 0 mm 3 m/s 752 mmHg 22%
    20:00 +31°C° 0 mm 3 m/s 753 mmHg 24%
    21:00 +32°C° 0 mm 4 m/s 753 mmHg 25%
    22:00 +30°C° 0 mm 4 m/s 753 mmHg 29%
    23:00 +29°C° 0 mm 5 m/s 753 mmHg 32%

    31 Mai, Miercuri

    Timp Temperatura Precipitaţii Vânt Presiune Umiditate
    00:00 +28°C° 0 mm 5 m/s 753 mmHg 36%
    01:00 +27°C° 0 mm 4 m/s 753 mmHg 38%
    02:00 +26°C° 0 mm 4 m/s 753 mmHg 39%
    03:00 +26°C° 0 mm 3 m/s 753 mmHg 41%
    04:00 +26°C° 0 mm 3 m/s 753 mmHg 41%
    05:00 +26°C° 0 mm 3 m/s 754 mmHg 41%
    06:00 +26°C° 0 mm 2 m/s 754 mmHg 41%
    07:00 +27°C° 0 mm 3 m/s 754 mmHg 37%
    08:00 +29°C° 0 mm 3 m/s 754 mmHg 33%
    09:00 +30°C° 0 mm 4 m/s 754 mmHg 28%
    10:00 +32°C° 0 mm 4 m/s 754 mmHg 25%
    11:00 +33°C° 0 mm 5 m/s 754 mmHg 22%
    12:00 +35°C° 0 mm 5 m/s 753 mmHg 19%
    13:00 +35°C° 0,1 mm 5 m/s 753 mmHg 18%
    14:00 +36°C° 0,1 mm 5 m/s 753 mmHg 17%
    15:00 +36°C° 0,1 mm 5 m/s 752 mmHg 16%
    16:00 +36°C° 0 mm 4 m/s 752 mmHg 17%
    17:00 +35°C° 0 mm 4 m/s 752 mmHg 17%
    18:00 +35°C° 0 mm 4 m/s 753 mmHg 18%
    19:00 +34°C° 0 mm 3 m/s 753 mmHg 20%
    20:00 +33°C° 0 mm 3 m/s 754 mmHg 21%
    21:00 +31°C° 0 mm 3 m/s 754 mmHg 23%
    22:00 +31°C° 0 mm 3 m/s 754 mmHg 27%
    23:00 +30°C° 0 mm 4 m/s 754 mmHg 30%

    1 Iunie, Joi

    Timp Temperatura Precipitaţii Vânt Presiune Umiditate
    00:00 +29°C° 0 mm 4 m/s 754 mmHg 33%
    01:00 +28°C° 0 mm 4 m/s 754 mmHg 34%
    02:00 +28°C° 0 mm 3 m/s 753 mmHg 36%
    03:00 +27°C° 0 mm 3 m/s 753 mmHg 37%
    04:00 +27°C° 0 mm 3 m/s 754 mmHg 37%
    05:00 +27°C° 0 mm 2 m/s 754 mmHg 38%
    06:00 +27°C° 0 mm 2 m/s 755 mmHg 38%
    07:00 +28°C° 0 mm 2 m/s 755 mmHg 35%
    08:00 +30°C° 0 mm 2 m/s 755 mmHg 32%
    09:00 +31°C° 0 mm 2 m/s 755 mmHg 28%
    10:00 +33°C° 0 mm 3 m/s 754 mmHg 25%
    11:00 +34°C° 0 mm 3 m/s 754 mmHg 21%
    12:00 +36°C° 0 mm 4 m/s 754 mmHg 18%
    13:00 +36°C° 0 mm 4 m/s 753 mmHg 16%
    14:00 +37°C° 0 mm 4 m/s 753 mmHg 15%
    15:00 +37°C° 0 mm 4 m/s 753 mmHg 14%
    16:00 +37°C° 0 mm 5 m/s 753 mmHg 14%
    17:00 +37°C° 0 mm 5 m/s 753 mmHg 15%
    18:00 +36°C° 0 mm 5 m/s 752 mmHg 15%
    19:00 +35°C° 0,2 mm 5 m/s 753 mmHg 18%
    20:00 +34°C° 0,2 mm 4 m/s 753 mmHg 21%
    21:00 +32°C° 0,2 mm 4 m/s 753 mmHg 24%
    22:00 +31°C° 0,1 mm 3 m/s 753 mmHg 26%
    23:00 +30°C° 0,1 mm 3 m/s 753 mmHg 29%
    Arată mai mult